www.pogodaiklimat.ru
Время
(UTC), дата
01 27.11
02 27.11
03 27.11
04 27.11
05 27.11
06 27.11
07 27.11
08 27.11
09 27.11
10 27.11
11 27.11
12 27.11
13 27.11
14 27.11
15 27.11
16 27.11
17 27.11
18 27.11
19 27.11
20 27.11
21 27.11
22 27.11
23 27.11
00 28.11
01 28.11
02 28.11
03 28.11
04 28.11
05 28.11
06 28.11
07 28.11
08 28.11
09 28.11
10 28.11
11 28.11
12 28.11
13 28.11
14 28.11
15 28.11
16 28.11
17 28.11
18 28.11
19 28.11
20 28.11
21 28.11
22 28.11
23 28.11
00 29.11
01 29.11
02 29.11
03 29.11
04 29.11
05 29.11
06 29.11
07 29.11
08 29.11
09 29.11
10 29.11
11 29.11
12 29.11
13 29.11
14 29.11
15 29.11
16 29.11
17 29.11
18 29.11
19 29.11
20 29.11
21 29.11
22 29.11
23 29.11
00 30.11
01 30.11
02 30.11
03 30.11
04 30.11
05 30.11
06 30.11
07 30.11
08 30.11
09 30.11
10 30.11
11 30.11
12 30.11
13 30.11
14 30.11
15 30.11
16 30.11
17 30.11
18 30.11
19 30.11
20 30.11
21 30.11
22 30.11
23 30.11
00 1.12
01 1.12
02 1.12
03 1.12
04 1.12
05 1.12
06 1.12
07 1.12
08 1.12
09 1.12
10 1.12
11 1.12
12 1.12
13 1.12
14 1.12
15 1.12
16 1.12
17 1.12
18 1.12
19 1.12
20 1.12
21 1.12
22 1.12
23 1.12
00 2.12
01 2.12
02 2.12
03 2.12
04 2.12
05 2.12
06 2.12
07 2.12
08 2.12
09 2.12
10 2.12
11 2.12
12 2.12
13 2.12
14 2.12
15 2.12
16 2.12
17 2.12
18 2.12
19 2.12
20 2.12
21 2.12
22 2.12
23 2.12
00 3.12
01 3.12
02 3.12
03 3.12
04 3.12
05 3.12
06 3.12
07 3.12
08 3.12
09 3.12
10 3.12
11 3.12
12 3.12
13 3.12
14 3.12
15 3.12
16 3.12
17 3.12
18 3.12
19 3.12
20 3.12
21 3.12
22 3.12
23 3.12
00 4.12
01 4.12
Ветер
(напр.,м/с)
Видим. Явления Облачность Т
(С)
Тd
(С)
f
(%)
Тe
(С)
Тes
(С)
Комфортность P
(гПа)
Po
(гПа)
Тmin
(С)
Tmax
(С)
R
(мм)
R24
(мм)
S
(см)
СВ 2-2
{3}
24 км слаб. морось {дождь} 10/10 1000 м +6.5 +5.6 94 +4 +4 тепло 1020.5 1020.8 0.3
СВ 2-2
{3}
21 км в посл. час морось {дождь} 10/10 1000 м +6.4 +5.6 95 +4 +4 тепло 1020.5 1020.9
СВ 2-2
{4}
24 км {дождь, морось} 10/10 210 м +6.2 +5.5 95 +4 +4 по сезону 1020.3 1020.7
СВ 1 7000 м дымка {дождь} 10/10 1000 м +5.5 +5.1 97 +4 +4 тепло 1019.9 1020.4
СВ 1 600 м туман {дождь, дымка} 10/10 1000 м +5.0 +4.8 99 +3 +3 тепло 1020.2 1020.5
В 2-3
{4}
12 км в посл. час туман {дождь, дымка} 10/10 900 м +6.0 +5.6 97 +3 +3 по сезону 1020.1 1020.5 +4.3 4.7
СЗ 1 8000 м дымка 8/8 1000 м +5.1 +4.5 96 +4 +4 тепло 1020.4 1020.7
СВ 2 40 км 10/10 600 м +6.4 +5.4 93 +4 +4 тепло 1020.5 1020.9
В 3-4
{4}
45 км 10/10 900 м +6.9 +5.4 90 +4 +4 по сезону 1020.3 1020.8
В 3 28 км 10/9 600 м +7.4 +5.8 90 +4 +4 тепло 1020.4 1020.8
В 4 9000 м дымка 10/10 300 м +7.1 +5.8 91 +3 +3 тепло 1020.1 1020.5
В 4-6
{6}
14 км 10 баллов +7.3 +5.9 91 +4 +4 по сезону 1019.6 1020.0
В 4 13 км 10/10 200 м +7.4 +6.0 91 +4 +4 по сезону 1019.2 1019.6
В 3 9000 м дымка 10/10 100 м +7.3 +6.1 92 +4 +4 тепло 1019.1 1019.5
В 3-4
{6}
8000 м дымка 10/10 150 м +7.4 +6.3 93 +4 +4 по сезону 1018.9 1019.3
В 2 4300 м дымка 10/10 100 м +7.4 +6.6 95 +5 +5 тепло 1018.9 1019.3
ЮВ 3 4100 м дымка 10/10 200 м +7.2 +6.0 92 +4 +4 тепло 1019.0 1019.4
В 3-4
{6}
2300 м дымка 10/10 120 м +6.9 +5.9 93 +4 +4 по сезону 1019.3 1019.7 +7.5
В 1 3300 м дымка 10/10 300 м +6.2 +5.4 95 +5 +5 тепло 1019.3 1019.7
В 2 2700 м дымка 10/10 +5.8 +4.8 93 +3 +3 тепло 1019.5 1019.9
В 3-5
{5}
2800 м дымка 10/10 180 м +5.8 +4.9 94 +2 +2 по сезону 1019.4 1019.8
В 4-5
{6}
2300 м дымка 10/10 100 м +5.8 +4.9 94 +2 +2 по сезону 1019.6 1019.9
В 3-5
{6}
2600 м дымка 10/10 100 м +5.9 +5.1 95 +2 +2 тепло 1019.5 1019.9
В 4-5
{6}
2900 м дымка 10/10 120 м +5.9 +5.0 94 +2 +2 по сезону 1019.2 1019.6
В 3-4
{4}
4100 м дымка 10/10 +5.9 +5.0 94 +2 +2 тепло 1019.0 1019.4
В 2-3
{5}
3700 м дымка 10/10 +5.9 +5.0 94 +3 +3 тепло 1019.3 1019.6
В 4-5
{6}
3500 м дымка 10/10 150 м +5.8 +4.8 93 +2 +2 по сезону 1019.1 1019.5
В 3 3200 м дымка 10/10 100 м +5.4 +4.5 94 +2 +2 тепло 1019.0 1019.4
В 3 4600 м дымка 10/10 +5.2 +4.3 94 +2 +2 тепло 1018.9 1019.3
В 4-6
{6}
5000 м дымка 10/10 150 м +5.1 +4.1 93 +1 +1 по сезону 1019.1 1019.4 +5.1
В 3 6000 м дымка 10/10 +4.8 +3.4 91 +1 +1 по сезону 1020.0 1020.3
В 4 5000 м дымка 10/10 +4.7 +3.3 91 0 0 тепло 1020.4 1020.8
В 3-4
{6}
7000 м дымка 10/10 +5.0 +3.4 89 +1 +1 по сезону 1020.8 1021.2
В 4 8000 м дымка 10/10 +5.8 +4.0 88 +2 +2 по сезону 1021.1 1021.5
В 4 8000 м дымка 10/10 +5.9 +3.9 87 +2 +2 тепло 1021.1 1021.5
В 3-4
{6}
13 км 10 баллов +6.0 +3.9 86 +3 +3 по сезону 1021.2 1021.6
В 4 17 км 10/10 +5.7 +3.8 88 +2 +2 по сезону 1021.1 1021.5
В 3 16 км 10/10 +6.3 +4.0 85 +3 +3 тепло 1021.1 1021.4
СВ 4-6
{6}
7000 м дымка 10/10 150 м +4.7 +3.5 92 0 0 по сезону 1021.8 1022.1
СВ 5 2700 м дымка 10/10 50 м +4.1 +3.6 97 -1 -1 по сезону 1022.2 1022.6
В 5 500 м туман {дымка} 10/10 <50 м +4.0 +3.6 97 -1 -1 по сезону 1022.6 1022.9
В 6-8
{9}
700 м туман {дымка} 10/10 30 м +4.3 +4.1 99 -1 -1 по сезону 1022.9 1023.2 +6.5
В 5 1000 м в посл. час туман 10/10 <50 м +4.6 +4.5 99 -1 -1 по сезону 1023.2 1023.6
В 5 700 м туман 10/10 50 м +4.5 +4.3 99 -1 -1 тепло 1023.5 1023.9
В 6-8
{9}
400 м туман 10/10 30 м +4.1 +3.9 99 -2 -2 прохладно 1024.1 1024.5
В 4-5
{7}
1000 м туман 10/10 <50 м +4.0 +3.9 99 -1 -1 по сезону 1024.5 1024.8
В 4-6
{6}
1400 м в посл. час туман 10/10 50 м +4.0 +3.9 99 -1 -1 тепло 1024.6 1024.9
В 3-5
{9}
600 м туман {дымка} 10/10 30 м +4.0 +3.8 99 0 0 по сезону 1024.8 1025.2
В 4-5
{5}
1000 м в посл. час туман 10/10 50 м +4.0 +3.6 97 -1 -1 по сезону 1024.8 1025.2
В 3-4
{5}
1600 м дымка 10/10 50 м +4.0 +3.8 99 0 0 тепло 1024.9 1025.3
СВ 3-4
{5}
2300 м дымка 10/10 60 м +3.9 +3.4 97 -0 -0 по сезону 1025.4 1025.9
В 4 2400 м дымка 10/10 50 м +3.9 +3.4 97 -1 -1 по сезону 1025.3 1025.7
В 4 2500 м дымка {туман} 10/10 50 м +3.6 +3.0 96 -1 -1 тепло 1025.5 1025.9
В 4-5
{6}
4000 м дымка {туман} 10/10 120 м +3.5 +2.8 95 -1 -1 по сезону 1025.9 1026.3 +3.5
В 4 6000 м дымка 10/10 200 м +3.3 +2.0 91 -1 -1 по сезону 1025.9 1026.3
В 3 9000 м дымка 10/10 200 м +3.0 +1.2 88 -1 -1 тепло 1026.4 1026.8
В 4-6
{6}
9000 м дымка 10/10 240 м +2.6 +0.8 88 -2 -2 прохладно 1026.9 1027.3
В 4 9000 м дымка 10/10 200 м +2.1 +0.2 87 -3 -3 по сезону 1027.1 1027.5
В 4 9000 м дымка 10/10 200 м +1.7 -0.4 86 -3 -3 по сезону 1027.2 1027.6
ЮВ 3-4
{7}
10 км 10/10 270 м +2.3 +0.1 85 -2 -2 прохладно 1026.9 1027.4
СВ 2 11 км 9/9 300 м +2.6 -0.1 82 -1 -0 по сезону 1026.7 1027.2
ЮВ 1 11 км 1/1 300 м +2.7 0.0 82 +1 +2 тепло 1026.7 1027.1
ЮВ 2-2
{4}
10 км 1/1 660 м +1.7 -0.7 84 -2 -2 прохладно 1026.9 1027.3
штиль 0 10 км 4/4 300 м +1.5 -0.5 87 0 0 по сезону 1027.2 1027.6
штиль 0 7000 м дымка 4/4 300 м +0.5 -0.6 92 -1 -1 тепло 1027.4 1027.7
В 1-2
{4}
7000 м дымка 1 балл -0.3 -1.3 93 -2 -2 по сезону 1027.7 1028.1 +3.5
В 2 8000 м дымка 1/1 600 м -0.2 -1.5 91 -4 -4 по сезону 1027.5 1027.9
ЮВ 2 7000 м дымка ясно -1.1 -2.1 93 -5 -5 по сезону 1027.8 1028.1
Ю 2-2
{3}
5000 м дымка 3/3 700 м -1.5 -2.4 94 -6 -6 холодно 1027.6 1028.0
ЮВ 2-3
{4}
4500 м дымка 1/1 600 м -1.3 -2.3 93 -5 -5 по сезону 1027.6 1028.0
ЮВ 3-4
{4}
3600 м дымка 4/4 600 м -1.5 -2.5 93 -7 -7 по сезону 1027.6 1028.0
Ю 1-1
{4}
3300 м дымка 4/4 540 м -2.5 -3.3 94 -5 -5 холодно 1027.7 1028.1
Ю 3-4
{4}
2900 м дымка 1/1 600 м -2.1 -3.0 94 -7 -7 холодно 1027.0 1027.5
Ю 2-3
{4}
2600 м дымка 10/10 -1.4 -2.4 93 -5 -5 по сезону 1026.9 1027.3
Ю 3-4
{5}
2400 м дымка 10/10 1500 м -0.8 -1.8 93 -6 -6 холодно 1026.2 1026.7
Ю 3 2200 м дымка 10/10 100 м +0.2 -0.8 93 -5 -5 прохладно 1026.0 1026.4
Ю 4 1800 м дымка 10/10 200 м +0.4 -0.6 93 -5 -5 по сезону 1025.8 1026.3
Ю 4-5
{6}
2000 м дымка 6/6 540 м -0.3 -1.2 94 -6 -6 холодно 1025.0 1025.3 -2.5
Ю 4 2400 м дымка 10/10 300 м +0.4 -0.6 93 -5 -5 прохладно 1024.5 1025.0
Ю 4 1400 м дымка 10/10 200 м +0.8 +0.1 95 -5 -5 по сезону 1024.2 1024.6
Ю 4-5
{6}
1400 м дымка 10/10 90 м +1.9 +1.3 96 -3 -3 холодно 1023.9 1024.4
Ю 4 1600 м в посл. час дождь {ливн. дождь} 10/10 100 м +2.8 +2.2 96 -2 -2 по сезону 1023.4 1023.8 0.1
Ю 6 1500 м дымка {ливн. дождь} 10/10 100 м +3.5 +2.8 95 -2 -2 по сезону 1022.5 1023.0
Ю 6-8
{9}
1300 м дымка {ливн. дождь} 10/10 90 м +4.4 +3.8 96 -1 -1 прохладно 1021.4 1021.9
Ю 6 1600 м дымка 10/10 100 м +5.4 +4.7 95 0 0 по сезону 1020.2 1020.6
Ю 7 1800 м морось с дождем {ливн. дождь} 10/10 200 м +6.2 +5.5 95 +1 +1 по сезону 1018.8 1019.3 0.3
Ю 7-9
{10}
2200 м морось {ливн. дождь, дождь} 10/10 120 м +6.3 +5.6 95 +1 +1 по сезону 1017.7 1018.2 0.8
Ю 7 2000 м морось с дождем {ливн. дождь} 10/10 100 м +6.6 +5.9 95 +1 +1 по сезону 1016.7 1017.2 1
ЮЗ 8 2400 м дождь {ливн. дождь, морось} 10/10 100 м +7.1 +6.3 95 +2 +2 тепло 1015.5 1016.0 2
ЮЗ 7-9
{12}
2900 м слаб. дождь {морось} 10 баллов +6.8 +6.3 97 +2 +2 по сезону 1014.8 1015.2 +7.1 2
З 5 1900 м морось с дождем 10/10 100 м +8.7 +8.3 97 +5 +5 тепло 1013.7 1014.1 1
З 6 8000 м морось {дождь} 10/8 200 м +9.3 +8.5 95 +5 +5 тепло 1012.7 1013.2 0.9
З 8-12
{12}
9000 м слаб. ливневой дождь {морось} 10/10 240 м +9.7 +8.4 92 +5 +5 по сезону 1012.1 1012.5 2
З 5-6
{16}
16 км в посл. час дождь {ливн. дождь} 9/9 600 м +9.3 +8.1 92 +6 +6 тепло 1011.9 1012.3 0.9
СЗ 6-9
{9}
5000 м ливневой дождь 10/10 1000 м +8.8 +7.5 92 +5 +5 тепло 1012.1 1012.4 1
СЗ 7-11
{16}
18 км в посл. час дождь {ливн. дождь} 10/10 800 м +8.7 +5.5 80 +5 +5 по сезону 1012.1 1012.5 3
СЗ 6-9
{10}
17 км 8/8 1000 м +8.3 +5.5 83 +4 +4 тепло 1012.2 1012.7
СЗ 6-8
{9}
10 км слаб. ливневой дождь 9/8 600 м +8.2 +6.4 88 +4 +4 тепло 1012.3 1012.7
СЗ 6-9
{11}
4900 м слаб. ливневой дождь 10/10 240 м +8.4 +7.1 92 +4 +4 по сезону 1012.0 1012.5 0.5
С 8 8000 м слаб. дождь 10/9 300 м +9.1 +7.7 91 +5 +5 тепло 1011.9 1012.3 2
С 10 14 км в посл. час дождь {ливн. дождь} 10/8 300 м +9.0 +7.4 90 +4 +4 тепло 1012.6 1012.9 0.2
С 9-12
{16}
10 км слаб. ливневой дождь 10/10 270 м +8.8 +7.3 90 +4 +4 по сезону 1013.7 1014.0 +6.8 0.4 17.3
С 8 11 км слаб. морось 10/9 1000 м +8.6 +6.7 88 +4 +4 тепло 1014.8 1015.1 0.1
С 7 10 км слаб. ливневой дождь {морось} 10/10 600 м +8.5 +6.3 86 +4 +4 тепло 1015.7 1016.0 0.2
С 8-11
{13}
18 км в посл. час дождь {ливн. дождь, морось} 10/10 930 м +9.1 +5.2 77 +5 +5 по сезону 1016.3 1016.7
С 7 17 км {ливн. дождь, морось} 10/10 +9.0 +4.6 74 +5 +5 тепло 1017.0 1017.4
С 6 15 км {ливн. дождь, морось} 10/10 1000 м +10.0 +5.5 74 +7 +7 тепло 1017.3 1017.7
С 8-11
{13}
19 км {ливн. дождь, морось} 6/6 1050 м +9.9 +4.1 67 +6 +6 по сезону 1017.6 1018.0
С 7 19 км 9/9 1000 м +10.2 +4.6 68 +7 +7 тепло 1017.6 1018.0
С 7 16 км 1/1 1500 м +9.6 +4.9 72 +6 +6 тепло 1017.9 1018.3
С 8-11
{15}
17 км 10/10 840 м +9.7 +4.9 72 +6 +6 по сезону 1018.4 1018.8
С 5 5000 м слаб. ливневой дождь 10/9 300 м +8.1 +6.8 91 +4 +4 по сезону 1019.1 1019.5 0.3
8000 м морось {ливн. дождь} 10/6 600 м +8.2 +7.1 93 1019.4 1019.8 0.4
С 4-6
{15}
35 км в посл. час морось {ливн. дождь} 10 баллов +8.3 +6.8 90 +5 +5 по сезону 1020.0 1020.3 +10.5 0.9
45 км 10/8 1000 м +8.0 +6.3 89 1020.5 1020.8
С 3 45 км 10/10 1000 м +7.7 +6.0 89 +5 +5 тепло 1020.8 1021.1
С 3-4
{6}
30 км 3/3 300 м +6.8 +5.2 90 +4 +4 по сезону 1021.1 1021.4
С 2-3
{5}
19 км 8/8 1000 м +5.7 +4.5 92 +3 +3 тепло 1021.3 1021.6
СВ 3-4
{6}
22 км 9/9 300 м +6.0 +4.8 92 +3 +3 тепло 1021.3 1021.7
СВ 3-4
{6}
26 км 10/10 240 м +6.0 +4.9 93 +3 +3 по сезону 1021.2 1021.7
СВ 3-4
{5}
22 км 10/10 600 м +6.4 +5.0 91 +3 +3 тепло 1021.2 1021.6
СВ 2-4
{4}
17 км 10/10 600 м +6.3 +5.1 92 +4 +4 тепло 1021.1 1021.5
СВ 2-3
{5}
14 км 10/10 840 м +6.2 +4.9 91 +4 +4 по сезону 1020.8 1021.2
СВ 2 12 км 10/10 600 м +6.1 +4.7 91 +4 +4 тепло 1020.5 1021.0
СВ 2 11 км 10/10 600 м +6.0 +4.7 91 +3 +3 тепло 1020.2 1020.6
ЮВ 3-5
{5}
11 км 10/10 750 м +5.9 +4.6 91 +3 +3 по сезону 1019.5 1020.0 +5.2 0.9
ЮВ 3 13 км 10/10 600 м +5.8 +4.5 91 +2 +2 тепло 1019.3 1019.8
В 2 11 км 10/10 600 м +5.7 +4.2 90 +3 +3 тепло 1019.4 1019.8
ЮВ 1-2
{5}
9000 м дымка 10/10 840 м +5.7 +4.9 95 +4 +4 по сезону 1018.8 1019.2
Ю 1 11 км 10/10 600 м +6.0 +4.4 89 +5 +5 тепло 1018.2 1018.7
штиль 0 14 км 10/10 1000 м +6.2 +4.8 91 +5 +5 тепло 1017.4 1017.9
ЮВ 2-2
{5}
13 км 10/10 960 м +6.5 +4.9 90 +4 +4 по сезону 1016.4 1016.8
Ю 2-3
{3}
11 км 10/10 1000 м +6.3 +4.8 90 +4 +4 по сезону 1015.6 1016.0
Ю 3-3
{3}
11 км 10/10 1000 м +6.2 +4.6 89 +3 +3 тепло 1014.7 1015.1
ЮВ 4-5
{5}
10 км 10/10 1110 м +5.7 +4.3 91 +2 +2 по сезону 1013.8 1014.2
Ю 3-3
{4}
9000 м дымка 10/10 1500 м +5.6 +4.6 93 +2 +2 по сезону 1013.5 1013.9
Ю 3-4
{4}
8000 м дымка 10/10 1000 м +5.7 +4.7 93 +2 +2 тепло 1012.7 1013.2
Ю 3-4
{5}
8000 м дымка 10/10 1200 м +5.7 +4.7 93 +2 +2 по сезону 1012.1 1012.5 +6.5
Ю 3-4
{4}
7000 м слаб. ливневой дождь 10/10 1000 м +5.7 +4.8 94 +2 +2 по сезону 1011.6 1012.0
Ю 3-5
{5}
6000 м в посл. час дождь {ливн. дождь} 10/10 1000 м +5.6 +4.8 95 +2 +2 тепло 1010.4 1010.9
Ю 5-6
{7}
6000 м дымка {ливн. дождь} 10/10 180 м +6.1 +5.0 93 +2 +2 по сезону 1009.6 1010.1
Ю 5-7
{7}
5000 м дымка {ливн. дождь} 10/10 300 м +6.2 +5.2 93 +2 +2 по сезону 1008.8 1009.2
Ю 5-6
{8}
5000 м дымка {ливн. дождь} 10/10 200 м +6.1 +5.3 95 +2 +2 тепло 1007.8 1008.4
Ю 5-7
{8}
5000 м дымка {ливн. дождь} 10/10 960 м +5.9 +4.9 93 +1 +1 по сезону 1006.9 1007.3
Ю 5-7
{7}
9000 м дымка 10/10 1000 м +6.1 +4.7 91 +2 +2 по сезону 1005.8 1006.3
Ю 5-6
{7}
12 км слаб. ливневой дождь {морось} 10/10 600 м +6.0 +4.5 90 +2 +2 тепло 1005.2 1005.7
ЮЗ 6-8
{8}
5000 м слаб. дождь {морось} 10/10 330 м +5.8 +4.6 92 +1 +1 по сезону 1004.3 1004.8 0.2
Ю 5-7
{8}
8000 м слаб. морось {дождь} 10/6 300 м +5.7 +4.8 94 +1 +1 по сезону 1003.3 1003.8 0.4
Ю 4-5
{7}
8000 м в посл. час дождь {ливн. дождь, морось} 10/10 300 м +5.7 +4.9 95 +2 +2 тепло 1002.4 1002.8 0.1
Ю 6-7
{8}
6000 м слаб. морось {дождь} 10/10 150 м +5.9 +5.0 94 +1 +1 по сезону 1001.0 1001.5 +5.5 0.1
Ю 5-7
{7}
4500 м в посл. час дождь {ливн. дождь} 10/10 600 м +5.8 +5.1 95 +1 +1 по сезону 1000.3 1000.8 0.2
Ю 4-5
{6}
3900 м в посл. час морось {ливн. дождь} 10/10 100 м +6.0 +5.3 95 +2 +2 тепло 999.8 1000.2 0.1
Ю 5-7
{7}
2200 м сильн. морось {ливн. дождь} 10/10 150 м +6.0 +5.3 95 +1 +1 по сезону 998.8 999.4 0.5
Ю 5-7
{9}
8000 м в посл. час морось {ливн. дождь} 10/10 200 м +6.1 +4.9 92 +2 +2 по сезону 997.7 998.2 0.1
Ю 6-8
{9}
7000 м дымка {ливн. дождь} 10/10 200 м +6.2 +4.9 91 +1 +1 тепло 996.4 996.9
Ю 6-8
{9}
8000 м дымка {ливн. дождь} 10 баллов +6.2 +5.0 92 +1 +1 по сезону 995.0 995.5 0.9
Ю 7 11 км 10/10 300 м +6.4 +4.9 90 +1 +1 по сезону 993.5 994.0
Ю 7 9000 м морось {ливн. дождь, дождь} 10/10 200 м +6.2 +4.9 91 +1 +1 по сезону 992.3 992.8 0.2
Ю 8-11
{11}
14 км слаб. морось {дождь} 10/10 300 м +5.8 +4.4 91 0 0 прохладно 991.1 991.6 0.2
Ю 7 17 км морось {ливн. дождь, дождь} 10/10 630 м +5.1 +3.8 91 -1 -1 по сезону 989.8 990.3 0.1
ЮВ 8 15 км слаб. морось {дождь} 10/10 300 м +5.4 +4.1 91 -0 -0 по сезону 988.5 989.1 0.1
ЮВ 8-11
{12}
27 км в посл. час морось {ливн. дождь, дождь} 10/10 270 м +5.4 +4.0 91 -0 -0 по сезону 987.5 987.9 +6.4
ЮВ 8 29 км морось {ливн. дождь} 10/9 300 м +5.3 +3.8 90 -1 -1 по сезону 986.3 986.8 0.2
ЮВ 9 16 км слаб. дождь {морось} 10/8 300 м +5.1 +3.7 91 -1 -1 по сезону 985.3 985.8 0.7
ЮВ 8-12
{13}
17 км слаб. дождь {морось} 10/10 450 м +5.1 +3.6 90 -1 -1 прохладно 984.2 984.6 0.7
ЮВ 9-12
{14}
14 км морось с дождем {ливн. дождь} 10/6 300 м +5.0 +3.6 91 -1 -1 по сезону 983.4 983.8 0.4
ЮВ 9-13
{14}
20 км слаб. дождь {морось} 10/6 300 м +5.1 +3.6 90 -1 -1 по сезону 982.1 982.7 0.2
ЮВ 7-11
{14}
17 км слаб. дождь {морось} 10 баллов +5.0 +3.4 89 -1 -1 по сезону 981.3 981.8 0.1
ЮВ 9-12
{12}
45 км в посл. час дождь {морось} 10/10 600 м +5.0 +3.2 88 -1 -1 по сезону 980.0 980.6
Местоположение метеостанции Амстердам (Нидерланды): широта 52.30 долгота 4.77 высота над уровнем моря -4 м.
В архиве по умолчанию представлена погода в Амстердаме за последнюю неделю. Архивные данные за месяц целиком и за предыдущие месяцы, начиная с января 2011 года, Вы можете получить, выбрав интересующий диапазон дат из раскрывающегося списка и нажав кнопку "Найти!".
*Определитесь, кто Вы:
Внимание! Время в таблицах - всемирное. Для получения местного времени необходимо прибавить поправку, которая равна 1 ч.
Смотрите также архив погоды в соседних городах и на ближайших метеорологических станциях:
Партнеры нашего сайта:      
Пояснения к столбцам:
  • Ветер - указаны скорость ветра в м/с - средняя за 10 мин, порывы в срок и между сроками (в фигурных скобках) и направление, откуда дует ветер: С - северный,
  • СВ - северо-восточный, В - восточный, ЮВ - юго-восточный, Ю - южный, ЮЗ - юго-западный, З - западный, СЗ - северо-западный.
  • Видимость - горизонтальная дальность видимости в метрах или километрах. При видимости от 1 до 10 км при отсутствии осадков обычно наблюдается дымка, при ухудшении видимости до 1 км и менее - туман. В сухую погоду видимость может ухудшаться дымом, пылью или мглою.
  • Явления - указаны атмосферные явления, наблюдавшиеся в срок или в последний час перед сроком; фигурными скобками обозначены явления, наблюдавшиеся между сроками (за 1-3 часа до срока); квадратными скобками обозначены град или гололедные отложения с указанием их диаметра в мм.
  • Облачность - указаны через наклонную черту общая и нижняя облачность в баллах и высота нижней границы облаков в метрах; квадратными скобками обозначены формы облаков: Ci - перистые, Cs - перисто-слоистые, Cc - перисто-кучевые, Ac - высококучевые, As - высокослоистые, Sc - слоисто-кучевые, Ns - слоисто-дождевые, Cu - кучевые, Cb - кучево-дождевые. Подробнее классификацию облаков см. в Атласе облаков (PDF).
  • T - Температура воздуха - температура, измеренная на высоте 2 м над землей.
  • Td - Температура точки росы - температура, при понижении до которой содержащийся в воздухе водяной пар достигнет насыщения.
  • f - Относительная влажность воздуха - влажноcть воздуха, измеренная на высоте 2 м над землей.
  • Te - Эффективная температура - температура, которую ощущает одетый по сезону человек в тени. Характеристика душности погоды. При расчете учитывается влияние влажности воздуха и скорости ветра на теплоощущения человека.
  • Tes - Эффективная температура на солнце - температура, которую ощущает человек, с поправкой на солнечный нагрев. Характеристика знойности погоды. Зависит от высоты солнца над горизонтом, облачности и скорости ветра. Ночью, в пасмурную погоду, а также при ветре 12 м/с и более поправка равна нулю.
  • P - Атмосферное давление - приведенное к уровню моря атмосферное давление.
  • Po - Атмосферное давление - измеренное на уровне метеостанции атмосферное давление.
  • Tmin - Минимальная температура - минимум температуры воздуха на высоте 2 м над землей.
  • Tmax - Максимальная температура - максимум температуры воздуха на высоте 2 м над землей.
  • R - Количество осадков - Количество выпавших осадков за период времени, мм. При наведении курсора мыши на число - период времени, за который выпало указанное количество осадков.
  • R24 - Количество осадков - Количество выпавших осадков за 24 часа, мм.
  • S - Снежный покров - Высота снежного покрова, см. При наведении курсора мыши на число - состояние снежного покрова и степень покрытия местности в баллах.